CDT,Max TemperatureF,Mean TemperatureF,Min TemperatureF,Max Dew PointF,MeanDew PointF,Min DewpointF,Max Humidity, Mean Humidity, Min Humidity, Max Sea Level PressureIn, Mean Sea Level PressureIn, Min Sea Level PressureIn, Max VisibilityMiles, Mean VisibilityMiles, Min VisibilityMiles, Max Wind SpeedMPH, Mean Wind SpeedMPH, Max Gust SpeedMPH,PrecipitationIn, CloudCover, Events, WindDirDegrees
2012-9-1,91,77,62,65,58,49,67,54,41,30.07,30.00,29.93,10,10,10,17,9,22,0.00,0,,110
2012-9-2,96,81,66,65,61,57,73,55,36,29.96,29.87,29.77,10,10,10,21,11,26,0.00,0,,185
2012-9-3,92,76,60,63,59,49,84,54,23,30.05,29.89,29.81,10,9,0,31,8,38,0.84,2,Fog-Rain-Thunderstorm,92
2012-9-4,91,76,61,66,58,52,90,57,24,29.87,29.80,29.66,10,10,10,35,8,43,T,2,Thunderstorm,92
2012-9-5,78,65,52,55,50,42,83,56,23,29.97,29.89,29.74,10,10,10,21,7,28,0.00,0,,345
2012-9-6,86,67,48,51,47,43,97,56,17,30.00,29.90,29.79,10,10,10,21,7,26,0.00,1,,134
2012-9-7,72,61,49,53,47,41,77,56,35,30.14,30.03,29.84,10,10,10,22,12,28,0.00,2,,351
2012-9-8,85,65,45,46,41,34,89,55,20,30.14,30.07,29.93,10,10,10,31,10,40,0.00,0,,312
2012-9-9,76,60,43,48,43,40,92,60,27,30.26,30.17,30.06,10,10,10,14,5,20,0.00,0,,190
2012-9-10,89,73,57,47,45,44,62,42,22,30.05,29.88,29.74,10,10,10,31,18,43,0.00,0,,183
2012-9-11,96,82,67,52,47,45,47,33,13,29.90,29.74,29.69,10,10,10,24,14,33,0.00,0,,209
2012-9-12,67,59,51,53,47,37,94,69,23,30.30,30.17,29.94,10,10,5,20,5,29,0.29,4,Rain-Thunderstorm,15
2012-9-13,77,60,43,53,44,35,100,62,16,30.38,30.32,30.27,10,9,6,15,5,21,0.00,2,Fog,231
2012-9-14,81,63,44,46,43,37,93,51,15,30.30,30.25,30.19,10,10,10,14,2,16,0.00,0,,215
2012-9-15,85,67,48,47,41,37,86,42,12,30.18,30.08,29.98,10,10,10,23,13,32,0.00,0,,198
2012-9-16,83,70,57,54,50,40,80,57,33,29.99,29.93,29.86,10,10,10,23,9,31,T,1,,196
2012-9-17,66,54,42,48,42,35,93,64,34,30.10,30.05,29.99,10,10,10,25,9,31,0.01,5,Rain,2
2012-9-18,68,51,34,38,34,32,93,57,18,30.12,30.02,29.83,10,10,10,18,6,25,0.00,1,,179
2012-9-19,75,63,50,45,35,24,77,39,10,29.98,29.83,29.73,10,10,10,32,13,41,0.00,0,,282
2012-9-20,68,57,45,39,29,25,55,37,19,30.04,29.98,29.89,10,10,10,17,7,25,0.00,1,,295
2012-9-21,71,58,45,39,34,33,59,43,26,30.03,29.88,29.81,10,10,10,26,10,32,0.00,2,,356
2012-9-22,60,46,32,34,28,22,75,50,25,30.33,30.25,30.06,10,10,10,20,8,24,0.00,0,,343
2012-9-23,66,47,27,29,26,24,92,50,17,30.39,30.31,30.18,10,10,10,10,3,17,0.00,0,,131
2012-9-24,81,64,47,43,35,28,74,40,16,30.16,29.96,29.81,10,10,10,16,6,24,0.00,0,,219
2012-9-25,79,60,40,42,37,33,83,51,19,29.98,29.89,29.83,10,10,10,12,5,16,0.00,0,,36
2012-9-26,73,53,33,35,30,17,82,48,13,30.21,30.11,29.99,10,10,10,15,5,22,0.00,0,,28
2012-9-27,75,54,32,36,30,26,89,53,17,30.27,30.21,30.15,10,10,10,9,2,14,0.00,0,,69
2012-9-28,78,58,37,39,32,25,85,50,14,30.24,30.17,30.12,10,10,10,13,3,16,0.00,0,,107
2012-9-29,82,61,39,41,37,34,82,50,17,30.18,30.10,30.02,10,10,10,12,2,14,0.00,0,,184
2012-9-30,81,61,40,44,39,35,89,52,16,30.03,29.97,29.91,10,10,10,12,2,16,0.00,0,,204